Time,TemperatureF,DewpointF,PressureIn,WindDirection,WindDirectionDegrees,WindSpeedMPH,WindSpeedGustMPH,Humidity,HourlyPrecipIn,Conditions,Clouds,dailyrainin,SoftwareType,DateUTC
2016-08-24 00:03:00,58.6,39.5,30.22,WSW,257,0.0,-999.0,49,0.00,,,-99.99,WeatherUpdate +1.0,2016-08-24 07:03:00,
2016-08-24 00:08:00,58.5,38.3,30.21,WSW,257,0.0,-999.0,47,0.00,,,-99.99,WeatherUpdate +1.0,2016-08-24 07:08:00,
2016-08-24 00:13:00,58.5,41.4,30.21,WSW,257,0.0,-999.0,53,0.00,,,-99.99,WeatherUpdate +1.0,2016-08-24 07:13:00,
2016-08-24 00:18:00,58.5,41.9,30.22,WSW,257,0.0,-999.0,54,0.00,,,-99.99,WeatherUpdate +1.0,2016-08-24 07:18:00,
2016-08-24 00:23:00,57.9,42.3,30.22,WSW,257,1.0,1.0,56,0.00,,,-99.99,WeatherUpdate +1.0,2016-08-24 07:23:00,
2016-08-24 00:28:00,57.2,40.7,30.22,WSW,257,0.0,1.0,54,0.00,,,-99.99,WeatherUpdate +1.0,2016-08-24 07:28:00,
2016-08-24 00:33:00,56.8,36.2,30.22,WSW,257,0.0,-999.0,46,0.00,,,-99.99,WeatherUpdate +1.0,2016-08-24 07:33:00,
2016-08-24 00:38:00,56.7,38.8,30.22,WSW,257,0.0,-999.0,51,0.00,,,-99.99,WeatherUpdate +1.0,2016-08-24 07:38:00,
2016-08-24 00:43:00,56.7,40.7,30.22,WSW,257,0.0,-999.0,55,0.00,,,-99.99,WeatherUpdate +1.0,2016-08-24 07:43:00,
2016-08-24 00:53:00,56.5,36.0,30.22,WSW,257,0.0,-999.0,46,0.00,,,-99.99,WeatherUpdate +1.0,2016-08-24 07:53:00,
2016-08-24 00:59:00,56.2,36.8,30.22,WSW,257,0.0,-999.0,48,0.00,,,-99.99,WeatherUpdate +1.0,2016-08-24 07:59:00,
2016-08-24 01:04:00,56.1,37.2,30.21,WSW,257,0.0,-999.0,49,0.00,,,-99.99,WeatherUpdate +1.0,2016-08-24 08:04:00,
2016-08-24 01:09:00,55.6,36.2,30.22,WSW,257,0.0,-999.0,48,0.00,,,-99.99,WeatherUpdate +1.0,2016-08-24 08:09:00,
2016-08-24 01:14:00,55.3,35.9,30.22,WSW,257,0.0,-999.0,48,0.00,,,-99.99,WeatherUpdate +1.0,2016-08-24 08:14:00,
2016-08-24 01:19:00,55.3,31.4,30.21,WSW,257,0.0,-999.0,40,0.00,,,-99.99,WeatherUpdate +1.0,2016-08-24 08:19:00,
2016-08-24 01:24:00,55.4,36.0,30.22,WSW,257,0.0,-999.0,48,0.00,,,-99.99,WeatherUpdate +1.0,2016-08-24 08:24:00,
2016-08-24 01:29:00,55.2,37.4,30.22,WSW,257,0.0,-999.0,51,0.00,,,-99.99,WeatherUpdate +1.0,2016-08-24 08:29:00,
2016-08-24 01:34:00,55.1,35.2,30.22,WSW,257,0.0,1.0,47,0.00,,,-99.99,WeatherUpdate +1.0,2016-08-24 08:34:00,
2016-08-24 01:39:00,55.0,36.7,30.22,WSW,257,0.0,-999.0,50,0.00,,,-99.99,WeatherUpdate +1.0,2016-08-24 08:39:00,
2016-08-24 01:44:00,55.0,40.5,30.22,WSW,257,0.0,-999.0,58,0.00,,,-99.99,WeatherUpdate +1.0,2016-08-24 08:44:00,
2016-08-24 01:49:00,55.1,42.3,30.22,WSW,257,0.0,-999.0,62,0.00,,,-99.99,WeatherUpdate +1.0,2016-08-24 08:49:00,
2016-08-24 01:54:00,55.1,44.7,30.22,WSW,257,0.0,-999.0,68,0.00,,,-99.99,WeatherUpdate +1.0,2016-08-24 08:54:00,
2016-08-24 01:59:00,55.1,45.5,30.21,WSW,257,0.0,-999.0,70,0.00,,,-99.99,WeatherUpdate +1.0,2016-08-24 08:59:00,
2016-08-24 02:04:00,55.2,43.6,30.22,WSW,257,0.0,-999.0,65,0.00,,,-99.99,WeatherUpdate +1.0,2016-08-24 09:04:00,
2016-08-24 02:09:00,55.3,43.3,30.22,WSW,257,0.0,-999.0,64,0.00,,,-99.99,WeatherUpdate +1.0,2016-08-24 09:09:00,
2016-08-24 02:14:00,55.5,44.3,30.22,WSW,257,0.0,-999.0,66,0.00,,,-99.99,WeatherUpdate +1.0,2016-08-24 09:14:00,
2016-08-24 02:20:00,55.6,42.8,30.22,WSW,257,0.0,-999.0,62,0.00,,,-99.99,WeatherUpdate +1.0,2016-08-24 09:20:00,
2016-08-24 02:30:00,55.5,41.8,30.22,WSW,257,0.0,-999.0,60,0.00,,,-99.99,WeatherUpdate +1.0,2016-08-24 09:30:00,
2016-08-24 02:35:00,55.2,41.1,30.23,WSW,257,0.0,-999.0,59,0.00,,,-99.99,WeatherUpdate +1.0,2016-08-24 09:35:00,
2016-08-24 02:40:00,55.0,43.9,30.23,WSW,257,0.0,-999.0,66,0.00,,,-99.99,WeatherUpdate +1.0,2016-08-24 09:40:00,
2016-08-24 02:45:00,54.9,43.8,30.22,WSW,257,0.0,1.0,66,0.00,,,-99.99,WeatherUpdate +1.0,2016-08-24 09:45:00,
2016-08-24 02:50:00,54.6,41.8,30.23,WSW,257,0.0,-999.0,62,0.00,,,-99.99,WeatherUpdate +1.0,2016-08-24 09:50:00,
2016-08-24 02:55:00,54.4,40.4,30.23,WSW,257,0.0,1.0,59,0.00,,,-99.99,WeatherUpdate +1.0,2016-08-24 09:55:00,
2016-08-24 03:00:00,54.2,38.4,30.22,WSW,257,0.0,1.0,55,0.00,,,-99.99,WeatherUpdate +1.0,2016-08-24 10:00:00,
2016-08-24 03:05:00,53.9,34.7,30.23,WSW,257,0.0,1.0,48,0.00,,,-99.99,WeatherUpdate +1.0,2016-08-24 10:05:00,
2016-08-24 03:10:00,53.5,32.7,30.23,WSW,257,0.0,-999.0,45,0.00,,,-99.99,WeatherUpdate +1.0,2016-08-24 10:10:00,
2016-08-24 03:15:00,53.2,35.5,30.23,WSW,257,0.0,-999.0,51,0.01,,,-99.99,WeatherUpdate +1.0,2016-08-24 10:15:00,
2016-08-24 03:20:00,53.1,32.3,30.23,WSW,257,0.0,-999.0,45,0.01,,,-99.99,WeatherUpdate +1.0,2016-08-24 10:20:00,
2016-08-24 03:25:00,53.0,32.8,30.23,WSW,257,0.0,1.0,46,0.01,,,-99.99,WeatherUpdate +1.0,2016-08-24 10:25:00,
2016-08-24 03:30:00,53.1,35.0,30.23,WSW,257,0.0,-999.0,50,0.01,,,-99.99,WeatherUpdate +1.0,2016-08-24 10:30:00,
2016-08-24 03:36:00,53.2,34.5,30.24,WSW,257,0.0,-999.0,49,0.01,,,-99.99,WeatherUpdate +1.0,2016-08-24 10:36:00,
2016-08-24 03:41:00,53.4,35.7,30.23,WSW,257,0.0,-999.0,51,0.01,,,-99.99,WeatherUpdate +1.0,2016-08-24 10:41:00,
2016-08-24 03:46:00,53.4,33.7,30.24,WSW,257,0.0,-999.0,47,0.01,,,-99.99,WeatherUpdate +1.0,2016-08-24 10:46:00,
2016-08-24 03:51:00,53.5,36.3,30.24,WSW,257,0.0,-999.0,52,0.01,,,-99.99,WeatherUpdate +1.0,2016-08-24 10:51:00,
2016-08-24 03:56:00,53.5,33.8,30.24,WSW,257,0.0,-999.0,47,0.01,,,-99.99,WeatherUpdate +1.0,2016-08-24 10:56:00,
2016-08-24 04:01:00,53.4,36.7,30.24,WSW,257,0.0,-999.0,53,0.01,,,-99.99,WeatherUpdate +1.0,2016-08-24 11:01:00,
2016-08-24 04:06:00,53.3,33.6,30.24,WSW,257,0.0,-999.0,47,0.01,,,-99.99,WeatherUpdate +1.0,2016-08-24 11:06:00,
2016-08-24 04:11:00,53.3,34.6,30.25,WSW,257,0.0,-999.0,49,0.00,,,-99.99,WeatherUpdate +1.0,2016-08-24 11:11:00,
2016-08-24 04:16:00,53.3,38.0,30.25,WSW,257,0.0,-999.0,56,0.00,,,-99.99,WeatherUpdate +1.0,2016-08-24 11:16:00,
2016-08-24 04:21:00,53.3,36.6,30.24,WSW,257,0.0,-999.0,53,0.00,,,-99.99,WeatherUpdate +1.0,2016-08-24 11:21:00,
2016-08-24 04:31:00,53.4,35.7,30.24,WSW,257,0.0,-999.0,51,0.00,,,-99.99,WeatherUpdate +1.0,2016-08-24 11:31:00,
2016-08-24 04:36:00,53.4,34.7,30.25,WSW,257,0.0,-999.0,49,0.00,,,-99.99,WeatherUpdate +1.0,2016-08-24 11:36:00,
2016-08-24 04:41:00,53.3,36.1,30.25,WSW,257,0.0,-999.0,52,0.00,,,-99.99,WeatherUpdate +1.0,2016-08-24 11:41:00,
2016-08-24 04:46:00,53.2,34.5,30.25,WSW,257,0.0,-999.0,49,0.00,,,-99.99,WeatherUpdate +1.0,2016-08-24 11:46:00,
2016-08-24 04:51:00,53.2,35.0,30.25,WSW,257,0.0,-999.0,50,0.00,,,-99.99,WeatherUpdate +1.0,2016-08-24 11:51:00,
2016-08-24 04:56:00,53.1,40.4,30.25,WSW,257,0.0,-999.0,62,0.00,,,-99.99,WeatherUpdate +1.0,2016-08-24 11:56:00,
2016-08-24 05:02:00,52.9,36.2,30.25,WSW,257,0.0,-999.0,53,0.00,,,-99.99,WeatherUpdate +1.0,2016-08-24 12:02:00,
2016-08-24 05:07:00,52.7,36.1,30.24,WSW,257,0.0,-999.0,53,0.00,,,-99.99,WeatherUpdate +1.0,2016-08-24 12:07:00,
2016-08-24 05:12:00,52.5,29.5,30.25,WSW,257,0.0,-999.0,41,0.00,,,-99.99,WeatherUpdate +1.0,2016-08-24 12:12:00,
2016-08-24 05:17:00,52.2,32.6,30.25,WSW,257,0.0,-999.0,47,0.00,,,-99.99,WeatherUpdate +1.0,2016-08-24 12:17:00,
2016-08-24 05:22:00,52.1,36.9,30.25,WSW,257,0.0,-999.0,56,0.00,,,-99.99,WeatherUpdate +1.0,2016-08-24 12:22:00,
2016-08-24 05:27:00,52.2,34.1,30.25,WSW,257,0.0,-999.0,50,0.00,,,-99.99,WeatherUpdate +1.0,2016-08-24 12:27:00,
2016-08-24 05:32:00,52.4,37.2,30.25,WSW,257,0.0,-999.0,56,0.00,,,-99.99,WeatherUpdate +1.0,2016-08-24 12:32:00,
2016-08-24 05:42:00,52.5,36.8,30.24,WSW,257,0.0,-999.0,55,0.00,,,-99.99,WeatherUpdate +1.0,2016-08-24 12:42:00,
2016-08-24 05:47:00,52.6,34.5,30.25,WSW,257,0.0,-999.0,50,0.00,,,-99.99,WeatherUpdate +1.0,2016-08-24 12:47:00,
2016-08-24 05:52:00,52.5,35.9,30.26,WSW,257,0.0,-999.0,53,0.00,,,-99.99,WeatherUpdate +1.0,2016-08-24 12:52:00,
2016-08-24 05:57:00,52.4,37.2,30.26,WSW,257,1.0,1.0,56,0.00,,,-99.99,WeatherUpdate +1.0,2016-08-24 12:57:00,
2016-08-24 06:02:00,52.2,34.1,30.26,WSW,257,0.0,-999.0,50,0.00,,,-99.99,WeatherUpdate +1.0,2016-08-24 13:02:00,
2016-08-24 06:07:00,52.1,32.0,30.26,WSW,257,0.0,-999.0,46,0.00,,,-99.99,WeatherUpdate +1.0,2016-08-24 13:07:00,
2016-08-24 06:13:00,52.2,33.1,30.26,WSW,257,0.0,-999.0,48,0.00,,,-99.99,WeatherUpdate +1.0,2016-08-24 13:13:00,
2016-08-24 06:18:00,52.4,52.4,30.26,WSW,257,0.0,-999.0,100,0.00,,,-99.99,WeatherUpdate +1.0,2016-08-24 13:18:00,
2016-08-24 06:23:00,52.3,34.2,30.27,WSW,257,0.0,1.0,50,0.00,,,-99.99,WeatherUpdate +1.0,2016-08-24 13:23:00,
2016-08-24 06:28:00,52.2,33.1,30.26,WSW,257,0.0,-999.0,48,0.00,,,-99.99,WeatherUpdate +1.0,2016-08-24 13:28:00,
2016-08-24 06:33:00,52.1,32.0,30.27,WSW,257,0.0,-999.0,46,0.00,,,-99.99,WeatherUpdate +1.0,2016-08-24 13:33:00,
2016-08-24 06:38:00,52.1,36.4,30.27,WSW,257,0.0,-999.0,55,0.00,,,-99.99,WeatherUpdate +1.0,2016-08-24 13:38:00,
2016-08-24 06:43:00,52.2,35.6,30.27,WSW,257,0.0,-999.0,53,0.00,,,-99.99,WeatherUpdate +1.0,2016-08-24 13:43:00,
2016-08-24 06:48:00,52.1,36.9,30.27,WSW,257,0.0,-999.0,56,0.00,,,-99.99,WeatherUpdate +1.0,2016-08-24 13:48:00,
2016-08-24 06:53:00,52.1,36.9,30.27,WSW,257,0.0,-999.0,56,0.01,,,-99.99,WeatherUpdate +1.0,2016-08-24 13:53:00,
2016-08-24 07:03:00,52.6,38.2,30.27,WSW,257,0.0,-999.0,58,0.01,,,-99.99,WeatherUpdate +1.0,2016-08-24 14:03:00,
2016-08-24 07:08:00,52.6,36.9,30.27,WSW,257,0.0,-999.0,55,0.01,,,-99.99,WeatherUpdate +1.0,2016-08-24 14:08:00,
2016-08-24 07:13:00,52.8,39.7,30.28,WSW,257,0.0,-999.0,61,0.01,,,-99.99,WeatherUpdate +1.0,2016-08-24 14:13:00,
2016-08-24 07:19:00,53.1,34.4,30.27,WSW,257,0.0,-999.0,49,0.01,,,-99.99,WeatherUpdate +1.0,2016-08-24 14:19:00,
2016-08-24 07:24:00,53.5,16.6,30.28,WSW,257,0.0,1.0,23,0.01,,,-99.99,WeatherUpdate +1.0,2016-08-24 14:24:00,
2016-08-24 07:29:00,54.0,35.8,30.28,WSW,257,1.0,1.0,50,0.01,,,-99.99,WeatherUpdate +1.0,2016-08-24 14:29:00,
2016-08-24 07:34:00,54.6,40.1,30.28,WSW,257,0.0,-999.0,58,0.01,,,-99.99,WeatherUpdate +1.0,2016-08-24 14:34:00,
2016-08-24 07:39:00,55.2,40.7,30.28,WSW,257,0.0,-999.0,58,0.01,,,-99.99,WeatherUpdate +1.0,2016-08-24 14:39:00,
2016-08-24 07:44:00,56.0,47.1,30.28,WSW,257,0.0,-999.0,72,0.01,,,-99.99,WeatherUpdate +1.0,2016-08-24 14:44:00,
2016-08-24 07:49:00,56.8,55.7,30.27,WSW,257,0.0,-999.0,96,0.01,,,-99.99,WeatherUpdate +1.0,2016-08-24 14:49:00,
2016-08-24 07:54:00,57.6,49.4,30.28,WSW,257,0.0,-999.0,74,0.00,,,-99.99,WeatherUpdate +1.0,2016-08-24 14:54:00,
2016-08-24 07:59:00,58.5,42.9,30.27,WSW,257,0.0,-999.0,56,0.00,,,-99.99,WeatherUpdate +1.0,2016-08-24 14:59:00,
2016-08-24 08:04:00,59.6,56.7,30.28,WSW,257,0.0,-999.0,90,0.00,,,-99.99,WeatherUpdate +1.0,2016-08-24 15:04:00,
2016-08-24 08:09:00,60.4,60.4,30.28,WSW,257,0.0,-999.0,100,0.00,,,-99.99,WeatherUpdate +1.0,2016-08-24 15:09:00,
2016-08-24 08:20:00,61.9,61.9,30.28,WSW,257,0.0,1.0,100,0.00,,,-99.99,WeatherUpdate +1.0,2016-08-24 15:20:00,
2016-08-24 08:25:00,62.3,62.0,30.27,WSW,257,1.0,1.0,99,0.00,,,-99.99,WeatherUpdate +1.0,2016-08-24 15:25:00,
2016-08-24 08:30:00,62.5,62.5,30.28,WSW,257,0.0,-999.0,100,0.00,,,-99.99,WeatherUpdate +1.0,2016-08-24 15:30:00,
2016-08-24 08:35:00,62.8,62.8,30.28,WSW,257,0.0,-999.0,100,0.00,,,-99.99,WeatherUpdate +1.0,2016-08-24 15:35:00,
2016-08-24 08:40:00,63.2,63.2,30.27,WSW,257,0.0,-999.0,100,0.00,,,-99.99,WeatherUpdate +1.0,2016-08-24 15:40:00,
2016-08-24 08:45:00,63.7,63.7,30.28,WSW,257,1.0,1.0,100,0.00,,,-99.99,WeatherUpdate +1.0,2016-08-24 15:45:00,
2016-08-24 08:50:00,64.2,64.2,30.27,WSW,257,3.0,3.0,100,0.00,,,-99.99,WeatherUpdate +1.0,2016-08-24 15:50:00,
2016-08-24 08:55:00,64.7,64.7,30.28,West,261,0.0,1.0,100,0.00,,,-99.99,WeatherUpdate +1.0,2016-08-24 15:55:00,
2016-08-24 09:00:00,65.5,65.5,30.27,WSW,243,1.0,3.0,100,0.00,,,-99.99,WeatherUpdate +1.0,2016-08-24 16:00:00,
2016-08-24 09:05:00,66.0,66.0,30.27,WSW,244,2.0,3.0,100,0.00,,,-99.99,WeatherUpdate +1.0,2016-08-24 16:05:00,
2016-08-24 09:10:00,66.1,66.1,30.27,WSW,244,1.0,2.0,100,0.00,,,-99.99,WeatherUpdate +1.0,2016-08-24 16:10:00,
2016-08-24 09:15:00,66.5,66.5,30.27,West,273,3.0,4.0,100,0.00,,,-99.99,WeatherUpdate +1.0,2016-08-24 16:15:00,
2016-08-24 09:20:00,66.8,66.8,30.27,West,278,0.0,1.0,100,0.00,,,-99.99,WeatherUpdate +1.0,2016-08-24 16:20:00,
2016-08-24 09:25:00,67.3,67.3,30.27,West,278,1.0,2.0,100,0.00,,,-99.99,WeatherUpdate +1.0,2016-08-24 16:25:00,
2016-08-24 09:30:00,67.5,67.5,30.27,West,278,3.0,3.0,100,0.00,,,-99.99,WeatherUpdate +1.0,2016-08-24 16:30:00,
2016-08-24 09:35:00,67.9,67.9,30.28,West,280,2.0,3.0,100,0.00,,,-99.99,WeatherUpdate +1.0,2016-08-24 16:35:00,
2016-08-24 09:40:00,68.5,68.5,30.28,West,280,3.0,3.0,100,0.00,,,-99.99,WeatherUpdate +1.0,2016-08-24 16:40:00,
2016-08-24 09:45:00,69.0,69.0,30.28,West,280,0.0,-999.0,100,0.00,,,-99.99,WeatherUpdate +1.0,2016-08-24 16:45:00,
2016-08-24 09:50:00,69.3,69.3,30.28,WNW,286,1.0,1.0,100,0.00,,,-99.99,WeatherUpdate +1.0,2016-08-24 16:50:00,
2016-08-24 09:55:00,69.7,69.7,30.28,WNW,286,0.0,-999.0,100,0.00,,,-99.99,WeatherUpdate +1.0,2016-08-24 16:55:00,
2016-08-24 10:00:00,70.1,70.1,30.28,WNW,286,2.0,2.0,100,0.00,,,-99.99,WeatherUpdate +1.0,2016-08-24 17:00:00,
2016-08-24 10:05:00,70.5,70.5,30.28,WNW,286,2.0,3.0,100,0.00,,,-99.99,WeatherUpdate +1.0,2016-08-24 17:05:00,
2016-08-24 10:10:00,70.8,70.8,30.28,WNW,286,1.0,1.0,100,0.00,,,-99.99,WeatherUpdate +1.0,2016-08-24 17:10:00,
2016-08-24 10:15:00,71.1,71.1,30.27,WNW,286,0.0,1.0,100,0.00,,,-99.99,WeatherUpdate +1.0,2016-08-24 17:15:00,
2016-08-24 10:20:00,71.7,71.7,30.27,WNW,287,1.0,4.0,100,0.00,,,-99.99,WeatherUpdate +1.0,2016-08-24 17:20:00,
2016-08-24 10:26:00,72.0,72.0,30.27,WNW,303,0.0,2.0,100,0.00,,,-99.99,WeatherUpdate +1.0,2016-08-24 17:26:00,
2016-08-24 10:31:00,72.5,72.5,30.27,NW,304,4.0,5.0,100,0.00,,,-99.99,WeatherUpdate +1.0,2016-08-24 17:31:00,
2016-08-24 10:36:00,72.8,72.8,30.27,NW,305,0.0,-999.0,100,0.00,,,-99.99,WeatherUpdate +1.0,2016-08-24 17:36:00,
2016-08-24 10:41:00,73.4,73.4,30.27,NW,305,5.0,6.0,100,0.00,,,-99.99,WeatherUpdate +1.0,2016-08-24 17:41:00,
2016-08-24 10:46:00,73.9,73.9,30.27,NW,305,1.0,1.0,100,0.00,,,-99.99,WeatherUpdate +1.0,2016-08-24 17:46:00,
2016-08-24 10:51:00,74.1,74.1,30.27,NW,308,0.0,3.0,100,0.00,,,-99.99,WeatherUpdate +1.0,2016-08-24 17:51:00,
2016-08-24 10:56:00,74.5,74.5,30.26,NW,322,1.0,1.0,100,0.00,,,-99.99,WeatherUpdate +1.0,2016-08-24 17:56:00,
2016-08-24 11:01:00,74.6,74.6,30.26,NNW,343,1.0,3.0,100,0.00,,,-99.99,WeatherUpdate +1.0,2016-08-24 18:01:00,
2016-08-24 11:06:00,75.2,75.2,30.26,North,355,3.0,4.0,100,0.00,,,-99.99,WeatherUpdate +1.0,2016-08-24 18:06:00,
2016-08-24 11:12:00,75.6,75.6,30.26,North,354,3.0,3.0,100,0.00,,,-99.99,WeatherUpdate +1.0,2016-08-24 18:12:00,
2016-08-24 11:17:00,76.0,76.0,30.26,North,354,3.0,5.0,100,0.00,,,-99.99,WeatherUpdate +1.0,2016-08-24 18:17:00,
2016-08-24 11:22:00,76.7,76.7,30.26,North,1,3.0,5.0,100,0.00,,,-99.99,WeatherUpdate +1.0,2016-08-24 18:22:00,
2016-08-24 11:32:00,77.1,77.1,30.26,North,1,2.0,3.0,100,0.00,,,-99.99,WeatherUpdate +1.0,2016-08-24 18:32:00,
2016-08-24 11:37:00,77.0,77.0,30.25,NNE,13,1.0,1.0,100,0.00,,,-99.99,WeatherUpdate +1.0,2016-08-24 18:37:00,
2016-08-24 11:42:00,77.2,77.2,30.25,North,7,4.0,5.0,100,0.00,,,-99.99,WeatherUpdate +1.0,2016-08-24 18:42:00,
2016-08-24 11:47:00,77.6,77.6,30.25,North,7,5.0,6.0,100,0.00,,,-99.99,WeatherUpdate +1.0,2016-08-24 18:47:00,
2016-08-24 11:52:00,78.0,78.0,30.25,North,7,4.0,4.0,100,0.00,,,-99.99,WeatherUpdate +1.0,2016-08-24 18:52:00,
2016-08-24 11:57:00,78.1,78.1,30.25,North,7,2.0,2.0,100,0.00,,,-99.99,WeatherUpdate +1.0,2016-08-24 18:57:00,
2016-08-24 12:02:00,78.7,78.7,30.25,North,7,3.0,4.0,100,0.00,,,-99.99,WeatherUpdate +1.0,2016-08-24 19:02:00,
2016-08-24 12:07:00,79.1,79.1,30.25,North,7,2.0,2.0,100,0.00,,,-99.99,WeatherUpdate +1.0,2016-08-24 19:07:00,
2016-08-24 12:13:00,79.3,79.3,30.25,North,4,3.0,4.0,100,0.00,,,-99.99,WeatherUpdate +1.0,2016-08-24 19:13:00,
2016-08-24 12:18:00,79.6,79.6,30.24,North,1,4.0,4.0,100,0.00,,,-99.99,WeatherUpdate +1.0,2016-08-24 19:18:00,
2016-08-24 12:23:00,79.8,79.8,30.24,North,1,3.0,4.0,100,0.00,,,-99.99,WeatherUpdate +1.0,2016-08-24 19:23:00,
2016-08-24 12:28:00,79.9,79.9,30.24,North,1,7.0,7.0,100,0.00,,,-99.99,WeatherUpdate +1.0,2016-08-24 19:28:00,
2016-08-24 12:38:00,80.6,80.6,30.23,North,1,2.0,2.0,100,0.00,,,-99.99,WeatherUpdate +1.0,2016-08-24 19:38:00,
2016-08-24 12:43:00,81.0,81.0,30.23,North,1,4.0,5.0,100,0.00,,,-99.99,WeatherUpdate +1.0,2016-08-24 19:43:00,